Simultaneous Nadir Overpasses (SNOs) Predictions

Prediction of SNOs between NOAA-19 and TERRA Satellite Orbit:

Table of predicted SNOs for the next 14.0 days since TLE Epoch: 7/26/2018
Index Date (NOAA-19) Time (NOAA-19) Lat,Lon (NOAA-19) SZA (NOAA-19 ) Date (TERRA) Time (TERRA) Lat,Lon (TERRA) SZA (TERRA ) Distance(km) Time Diff (sec)
1 07/28/2018 22:04:33 -77.27, 45.97 121.11 07/28/2018 22:05:01 -77.28, 45.86 121.11 2.90 28
2 07/28/2018 22:55:38 77.26,-146.72 58.89 07/28/2018 22:54:28 77.23,-146.72 58.84 3.22 70
3 07/31/2018 03:38:13 77.32, 142.42 59.46 07/31/2018 03:38:44 77.28, 142.41 59.43 4.27 31
4 07/31/2018 04:29:07 -77.26, -50.04 120.57 07/31/2018 04:28:12 -77.25, -50.07 120.60 1.69 55
5 08/02/2018 09:11:42 -77.34,-120.96 119.96 08/02/2018 09:12:28 -77.30,-120.95 119.99 4.17 46
6 08/02/2018 10:02:46 77.26, 46.65 60.00 08/02/2018 10:01:54 77.29, 46.65 60.01 3.24 52
7 08/04/2018 14:45:21 77.33, -24.25 60.63 08/04/2018 14:46:10 77.33, -24.24 60.65 0.79 49
8 08/04/2018 15:36:15 -77.29, 143.21 119.39 08/04/2018 15:35:38 -77.30, 143.28 119.38 2.60 37
9 08/06/2018 20:18:49 -77.33, 72.46 118.76 08/06/2018 20:19:54 -77.35, 72.39 118.73 3.25 65
10 08/06/2018 21:09:55 77.31,-120.26 61.24 08/06/2018 21:09:21 77.29,-120.21 61.21 3.11 34
11 08/09/2018 01:52:29 77.35, 169.00 61.90 08/09/2018 01:53:36 77.38, 169.07 61.94 3.40 67




NCC Satellite Simultaneous Nadir Overpasses (SNOs) Prediction Service
